Regional Weather Roundup
Issued by NWS

Home | Current Version | Previous Version | Graphics & Text | Print | Product List | Glossary On
Versions: 1 2 3 4 5 6 7 8 9 10 11 12 13 14 15 16 17 18 19 20 21 22 23 24 25 26 27 28 29 30 31 32 33 34 35 36 37 38 39 40 41 42 43 44 45 46 47 48 49
000
ASUS45 KCYS 292010
RWRWY

WYOMING REGIONAL WEATHER ROUNDUP
NATIONAL WEATHER SERVICE CHEYENNE WY
200 PM MDT MON JUN 29 2015

NOTE:  "FAIR" INDICATES FEW OR NO CLOUDS BELOW 12,000 FEET
WITH NO SIGNIFICANT WEATHER AND/OR OBSTRUCTIONS TO VISIBILITY.

WYZ001-292100-
YELLOWSTONE NATIONAL PARK

CITY           SKY/WX    TMP DP  RH WIND       PRES   REMARKS
LK YELLOWSTONE   N/A     79  38  22 VRB5      30.42F
W YELLOWSTONE  NOT AVBL

$$
WYZ002>013-054>058-071-098>099-292100-
NORTHERN WYOMING

CITY           SKY/WX    TMP DP  RH WIND       PRES   REMARKS
JACKSON        FAIR      84  46  26 SW6       30.29F
CODY           FAIR      90  46  22 NE7       30.19F
GREYBULL       FAIR      97  37  12 VRB3      30.09F HX  92
WORLAND        FAIR      92  36  14 VRB5      30.13F
SHERIDAN       FAIR      93  51  23 NW9       30.13F HX  90
BUFFALO        FAIR      88  48  25 NE9       30.21F
GILLETTE       FAIR      88  51  28 CALM      30.16S
HULETT         FAIR      84  54  34 W5        30.16F
NEWCASTLE      FAIR      82  50  32 MISG      30.16F

$$
WYZ014>020-022>026-101>103-292100-
CENTRAL WYOMING

CITY           SKY/WX    TMP DP  RH WIND       PRES   REMARKS
BIG PINEY      FAIR      85  41  21 SW7       30.36F
PINEDALE       FAIR      82  39  21 W6        30.36F
DUBOIS         FAIR      82  37  20 SE15G21   30.35F
LANDER         FAIR      88  46  23 VRB6      30.23F
RIVERTON       FAIR      89  44  20 E9        30.25F
CASPER         FAIR      89  37  16 N12       30.23F
DOUGLAS        FAIR      90  43  19 N8G17     30.21S

$$
WYZ021-027>030-104>119-292100-
SOUTHERN WYOMING

CITY           SKY/WX    TMP DP  RH WIND       PRES   REMARKS
EVANSTON       FAIR      89  40  17 NE7       30.34F
KEMMERER       FAIR     N/A N/A N/A NE3       30.38S
FORT BRIDGER   CLEAR     88  39  18 E6        30.37F
ROCK SPRINGS   FAIR      85  43  22 NE6       30.33F
DIXON          FAIR      88  32  13 N7        30.32S
RAWLINS        FAIR      85  43  22 E10       30.34F
SARATOGA       FAIR      82  39  21 N6        30.37S
LARAMIE        FAIR      78  49  35 E21G28    30.37S
CHEYENNE       FAIR      83  47  28 N15G21    30.28F
TORRINGTON     FAIR      87  55  33 W7        30.14F
PINE BLUFFS    FAIR      82  48  30 W5        30.24S

$$


USA.gov is the U.S. government's official web portal to all federal, state and local government web resources and services.